User: anonymous   Login
Location: Treviso
(45.6669°N, 12.2430°E)
Time: 23:07:13
(UTC+02:00)
Language:

NUDT-PHONESAT - Orbit

View from above orbital plane
View from above orbital plane
View from above satellite
View from above satellite

Ground track
Ground track

The orbit data is extracted from the following two-line orbital elements,

1 40900U 15049B   19292.44722550  .00001642  00000-0  72384-4 0  9995
2 40900  97.4372 300.6035 0014373 111.2591 354.8761 15.23149933226343
Epoch (UTC): 19 October 2019 10:44:00
Eccentricity: 0.0014373
inclination: 97.4372°
perigee height: 486 km
apogee height: 506 km
right ascension of ascending node: 300.6035°
argument of perigee: 111.2591°
revolutions per day: 15.23149933
mean anomaly at epoch: 354.8761°
orbit number at epoch: 22634

The dashed part of the orbit path shows where the satellite is in the earth's shadow,  

DLR